Regional Weather Roundup
Issued by NWS Northern Indiana

Home | Current Version | Previous Version | Graphics & Text | Print | Product List | Glossary On
Versions: 1 2 3 4 5 6 7 8 9 10 11 12 13 14 15 16 17 18 19 20 21 22 23 24 25 26 27 28 29 30 31 32 33 34 35 36 37 38 39 40 41 42 43 44 45 46 47 48 49 50
000
ASUS43 KIWX 281300
RWRIWX

KIWX WEATHER ROUNDUP
NATIONAL WEATHER SERVICE NORTHERN INDIANA
900 AM EDT SUN MAY 28 2017

NOTE: "FAIR" INDICATES FEW OR NO CLOUDS BELOW 12,000 FEET WITH NO
SIGNIFICANT WEATHER AND/OR OBSTRUCTIONS TO VISIBILITY.

* THESE STATIONS ARE NOT UNDER NWS QUALITY CONTROL. THEY ALSO MAY NOT
  REPORT WEATHER SUCH AS PRECIPITATION OR FOG.

INZ001>027-281400-
NORTHERN INDIANA

CITY           SKY/WX    TMP DP  RH WIND       PRES   REMARKS
GARY*          CLOUDY    63  61  94 CALM      29.75R
MICHIGAN CITY* CLOUDY    64  63  94 CALM      29.75R
LAPORTE*       CLOUDY    63  59  86 SE3       29.76R
KNOX*          CLOUDY    63  54  72 SE3       29.74R
SOUTH BEND     CLOUDY    63  57  81 SE7       29.75S
GOSHEN         CLOUDY    64  54  69 SE6       29.75S
MONTICELLO*    CLOUDY    64  61  91 SE5       29.74R
WARSAW*        MOSUNNY   63  55  77 SE5       29.75R
ANGOLA*        SUNNY     63  54  72 E7        29.76R
FORT WAYNE     CLOUDY    64  57  78 E5        29.76S
PERU/GRISSOM   MOSUNNY   65  65 100 SE7       29.74R

$$
INZ028>050-281400-
CENTRAL INDIANA

CITY           SKY/WX    TMP DP  RH WIND       PRES   REMARKS
LAFAYETTE      CLOUDY    64  64 100 CALM      29.74R FOG
KOKOMO*        CLOUDY    65  62  90 SE7       29.76R
MUNCIE*        CLOUDY    70  64  81 S7        29.76R
INDIANAPOLIS   CLOUDY    66  62  87 SW10      29.75R

$$
MIZ043>046-050>051-056>058-064>065-071>073-077>080-281400-
SOUTHWEST LOWER MICHIGAN

CITY           SKY/WX    TMP DP  RH WIND       PRES   REMARKS
BATTLE CREEK   CLOUDY    64  54  69 SE8       29.76F
BENTON HARBOR  CLOUDY    66  56  70 SE6       29.75R
COLDWATER*     CLOUDY    63  57  80 SE5       29.76S
HILLSDALE*     CLOUDY    63  54  72 E6        29.76S
HOLLAND        CLOUDY    67  55  65 SE9       29.76R
GRAND RAPIDS   PTSUNNY   67  56  67 SE10      29.75F
KALAMAZOO      MOSUNNY   65  53  65 VRB5      29.76F
STURGIS*       CLOUDY    63  56  78 SE12      29.76R
THREE RIVERS*  PTSUNNY   62  55  79 E5        29.76R

$$
OHZ001>008-015>018-024>025-281400-
NORTHWEST OHIO

CITY           SKY/WX    TMP DP  RH WIND       PRES   REMARKS
DEFIANCE       CLOUDY    64  56  75 E6        29.76S
FINDLAY        CLOUDY    66  61  84 SE7       29.74F
TOLEDO EXPRESS CLOUDY    66  58  75 E8        29.75F
TOLEDO METCALF MOSUNNY   67  58  72 E6        29.76F
LIMA           FOG       65  65 100 S6        29.75R VSB 1/2

$$
AND FOR LAKE MICHIGAN COASTAL AND OPEN LAKE BUOY OBSERVATIONS

STATION/POSITION TEMP    WIND        PRES    VSBY  WAVE
                 AIR SEA DIR/SP/G                  HT/PER
                 (F)     (DEG/KT/KT) (MB)    (MI)  (FT/S)
CALUMET HARBOR    60     190/  2/  3 1006.7R
MICHIGAN CITY     63     140/  7/  8   N/A
BURNS HARBOR      65     170/  5/  9 1007.8R
SOUTH LAKE BUOY   52 49   70/  4/  4 1006.8          0
4 MI NW BRIDGMAN  61 58  190/  4/  4 1007.4R         1
MICHIGAN CITY     58 55   CALM  /  2   N/A           0

$$
&&




USA.gov is the U.S. government's official web portal to all federal, state and local government web resources and services.